"2022-04-11 00:01:00",2888325,0.8226666,27.66667,0.7885941,0.01611072,0.85,0,0.7293333,11.13137,3.738219,0.04878068,0.79,0,-999,0,2.06,92.7,2.107,2.162,0.9,0.041,0,1.394,13.59,0.95,102.0444,3.31,3.312,3.31,100,0,0,0,66.63,256.2,256.2
"2022-04-11 00:02:00",2888326,0.8653334,32.4006,2.98409,0.02061283,0.9,0,0.6300001,14.39864,4.728868,0.03425395,0.7,0,-999,0,2.1,92.8,2.151,2.197,0.862,0.038,0,1.394,13.59,0.95,102.0444,3.31,3.31,3.309,100,0,0,0,66.63,256.2,256.2
"2022-04-11 00:03:00",2888327,0.7846667,35.53335,0.8842863,0.04349201,0.88,0,0.5633333,27.85903,5.860292,0.05133766,0.65,0,-999,0,2.08,93.5,2.115,2.191,0.954,0.028,0,1.398,13.58,1.013,102.0445,3.311,3.311,3.308,100,0,0,0,66.63,256.2,256.2
"2022-04-11 00:04:00",2888328,0.7126667,32.73331,2.488989,0.02999258,0.75,0,0.5873334,40.13089,3.877631,0.03193047,0.65,0,-999,0,1.933,93.3,1.898,2.084,0.883,0.053,0,1.416,13.58,0.95,102.0395,3.308,3.312,3.308,100,0,0,0,66.63,256.2,256.2
"2022-04-11 00:05:00",2888329,0.712,32.59999,1.14301,0.02135416,0.75,0,0.694,45.53511,4.013359,0.04841487,0.77,0,-999,0,1.813,92.8,1.781,1.952,0.796,0.031,0,1.416,13.58,0.825,102.0388,3.308,3.31,3.308,100,0,0,0,66.63,256.2,256.2
"2022-04-11 00:06:00",2888330,0.7333333,33.59912,3.006246,0.01349897,0.75,0,0.7039999,54.19922,3.059097,0.04409081,0.79,0,-999,0,1.707,92.2,1.674,1.841,0.875,0.041,0,1.416,13.58,0.95,102.0395,3.31,3.31,3.308,100,0,0,0,66.63,256.2,256.2
"2022-04-11 00:07:00",2888331,0.7306668,37.99998,1.366403,0.01236482,0.76,0,0.6793333,55.39958,2.602216,0.02489087,0.73,0,-999,0,1.613,91.4,1.62,1.766,0.871,0.028,0,1.416,13.59,0.888,102.0383,3.31,3.31,3.308,100,0,0,0,66.63,256.2,256.2
"2022-04-11 00:08:00",2888332,0.7513334,42.06678,1.878315,0.01407913,0.77,0,0.7886667,54.53127,2.800278,0.06641954,0.9,0,-999,0,1.6,91.2,1.596,1.701,0.846,0.029,0,1.429,13.59,0.888,102.0314,3.31,3.314,3.31,100,0,0,0,66.63,256.2,256.2
"2022-04-11 00:09:00",2888333,0.7126667,46.40038,3.17889,0.02885981,0.76,0,0.7913333,56.53361,3.739006,0.03809929,0.88,0,-999,0,1.6,91.1,1.577,1.663,0.808,0.042,0,1.433,13.59,0.888,102.0347,3.309,3.311,3.308,100,0,0,0,66.63,256.2,256.2
"2022-04-11 00:10:00",2888334,0.6533334,51.86667,0.884397,0.02936361,0.7,0,0.7746667,66.19862,4.291561,0.0403099,0.83,0,-999,0,1.573,91,1.556,1.654,0.742,0.044,0,1.435,13.58,0.825,102.0374,3.308,3.311,3.308,100,0,0,0,66.63,256.2,256.2
"2022-04-11 00:11:00",2888335,0.568,47.13241,3.46122,0.01557775,0.59,0,0.774,64.1324,3.051492,0.05840091,0.84,0,-999,0,1.58,90.8,1.572,1.65,0.721,0.029,0,1.437,13.59,0.763,102.0361,3.308,3.31,3.308,100,0,0,0,66.63,256.2,256.2
"2022-04-11 00:12:00",2888336,0.638,49.39987,2.983892,0.03709447,0.72,0,0.7593334,67.60004,1.199819,0.03414999,0.81,0,-999,0,1.593,90.9,1.588,1.663,0.712,0.025,0,1.437,13.58,0.763,102.0338,3.309,3.309,3.306,100,0,0,0,66.63,256.2,256.2
"2022-04-11 00:13:00",2888337,0.716,52.79992,1.27534,0.06416645,0.82,0,0.712,64.33363,2.494179,0.02039608,0.75,0,-999,0,1.6,91,1.623,1.677,0.737,0.038,0,1.437,13.58,0.825,102.0302,3.308,3.311,3.308,100,0,0,0,66.63,256.2,256.2
"2022-04-11 00:14:00",2888338,0.8413333,52.6,0.4897937,0.0227645,0.87,0,0.692,61.99967,2.828277,0.04134409,0.75,0,-999,0,1.6,91.3,1.655,1.697,0.846,0.063,0,1.437,13.58,0.95,102.0305,3.309,3.312,3.308,100,0,0,0,66.63,256.2,256.2
"2022-04-11 00:15:00",2888339,0.774,52.93333,0.6801375,0.01254326,0.8,0,0.5726667,67.79987,1.796034,0.02015496,0.6,0,-999,0,1.6,91.7,1.692,1.71,0.867,0.049,0,1.437,13.58,0.95,102.032,3.31,3.31,3.308,100,0,0,0,66.63,256.2,256.2
"2022-04-11 00:16:00",2888340,0.85,51.93333,0.7712812,0.028519,0.89,0,0.5553333,62.53254,4.674289,0.01257864,0.58,0,-999,0,1.6,92.3,1.708,1.717,0.904,0.036,0,1.437,13.59,0.95,102.0305,3.309,3.31,3.309,100,0,0,0,66.63,256.2,256.2
"2022-04-11 00:17:00",2888341,0.8140001,51.86655,1.309642,0.04029888,0.87,0,0.5066667,56.20004,1.326645,0.02772885,0.56,0,-999,0,1.6,92.1,1.691,1.714,0.933,0.028,0,1.437,13.59,0.95,102.0264,3.31,3.311,3.308,100,0,0,0,66.63,256.2,256.2
"2022-04-11 00:18:00",2888342,0.678,57.59989,1.199819,0.03762978,0.74,0,0.3846666,64.33195,4.421659,0.02729265,0.44,0,-999,0,1.6,92.3,1.686,1.705,0.858,0.05,0,1.437,13.58,0.95,102.0367,3.309,3.31,3.309,100,0,0,0,66.63,256.2,256.2
"2022-04-11 00:19:00",2888343,0.6286666,63.33342,1.920481,0.01927577,0.67,0,0.436,64.46336,7.392056,0.05326663,0.55,0,-999,0,1.6,92.5,1.683,1.695,0.787,0.044,0,1.437,13.59,0.888,102.0282,3.312,3.312,3.309,100,0,0,0,66.63,256.2,256.2
"2022-04-11 00:20:00",2888344,0.6786665,52.73322,3.820201,0.03008137,0.73,0,0.5733334,42.73766,8.151889,0.04141926,0.66,0,-999,0,1.6,92.4,1.668,1.683,0.846,0.029,0,1.437,13.59,0.888,102.0262,3.312,3.314,3.311,100,0,0,0,66.63,256.2,256.2
"2022-04-11 00:21:00",2888345,0.7353333,42.79972,2.006454,0.04364504,0.79,0,0.5780001,29.9328,2.434471,0.01796292,0.61,0,-999,0,1.6,91.8,1.638,1.672,0.879,0.021,0,1.437,13.59,0.888,102.0265,3.31,3.312,3.31,100,0,0,0,66.63,256.2,256.2
"2022-04-11 00:22:00",2888346,0.556,41.46368,4.270887,0.09156419,0.67,0,0.5133333,34.45841,6.084043,0.07152311,0.6,0,-999,0,1.6,91.8,1.614,1.661,0.733,0.094,0,1.437,13.59,0.888,102.0239,3.309,3.311,3.308,100,0,0,0,66.63,256.2,256.2
"2022-04-11 00:23:00",2888347,0.3979999,42.46494,5.136185,0.01904381,0.43,0,0.4833333,28.66335,6.941637,0.0349603,0.55,0,-999,0,1.553,91.9,1.594,1.635,0.692,0.039,0,1.437,13.58,0.763,102.0297,3.308,3.312,3.308,100,0,0,0,66.63,256.2,256.2
"2022-04-11 00:24:00",2888348,0.3966666,39.0666,1.948119,0.02890598,0.44,0,0.5113333,28.7329,3.802149,0.04063933,0.6,0,-999,0,1.5,91.6,1.535,1.587,0.637,0.04,0,1.437,13.59,0.7,102.0284,3.312,3.312,3.308,100,0,0,0,66.63,256.2,256.2
"2022-04-11 00:25:00",2888349,0.3973333,43.39809,4.895905,0.03567756,0.47,0,0.5306666,32.13363,2.963191,0.01878534,0.56,0,-999,0,1.493,91.1,1.513,1.539,0.529,0.028,0,1.437,13.58,0.575,102.0281,3.308,3.312,3.308,100,0,0,0,66.63,256.2,256.2
"2022-04-11 00:26:00",2888350,0.5313334,49.53395,2.552187,0.04379751,0.59,0,0.5353333,29.26667,2.976723,0.03896438,0.6,0,-999,0,1.427,90.8,1.503,1.536,0.542,0.031,0,1.437,13.58,0.575,102.0246,3.31,3.311,3.308,100,0,0,0,66.63,256.2,256.2
"2022-04-11 00:27:00",2888351,0.6359999,51.79998,0.7479666,0.04439218,0.7,0,0.4726667,29.8666,6.084951,0.04625533,0.58,0,-999,0,1.4,90.5,1.476,1.513,0.621,0.028,0,1.435,13.58,0.638,102.0248,3.309,3.31,3.309,100,0,0,0,66.63,256.2,256.2
"2022-04-11 00:28:00",2888352,0.6760001,52.39999,0.4901931,0.01356466,0.69,0,0.5786666,32.39823,3.156885,0.0720987,0.69,0,-999,0,1.4,90.2,1.441,1.485,0.692,0.021,0,1.435,13.58,0.7,102.0226,3.312,3.312,3.308,100,0,0,0,66.63,256.2,256.2
"2022-04-11 00:29:00",2888353,0.5906667,46.26705,4.280904,0.03453822,0.68,0,0.554,29.60257,5.082969,0.01818425,0.58,0,-999,0,1.4,89.9,1.431,1.462,0.712,0.025,0,1.43,13.58,0.763,102.019,3.308,3.312,3.308,100,0,0,0,66.63,256.2,256.2
"2022-04-11 00:30:00",2888354,0.4846666,42.33355,1.920532,0.04047495,0.55,0,0.4813333,33.86828,4.127559,0.02895207,0.52,0,-999,0,1.4,90,1.431,1.462,0.637,0.023,0,1.433,13.58,0.7,102.0181,3.309,3.31,3.307,100,0,0,0,66.63,256.2,256.2
"2022-04-11 00:31:00",2888355,0.4233333,38.80017,1.423379,0.02241031,0.47,0,0.3493333,37.66713,2.494258,0.01569147,0.39,0,-999,0,1.4,90,1.408,1.459,0.575,0.032,0,1.437,13.58,0.638,102.0181,3.31,3.311,3.309,100,0,0,0,66.63,256.2,256.2
"2022-04-11 00:32:00",2888356,0.548,47.13281,3.422376,0.05455273,0.69,0,0.334,39.86642,3.480128,0.02388863,0.38,0,-999,0,1.4,90.4,1.409,1.435,0.633,0.036,0,1.43,13.59,0.7,102.0199,3.31,3.31,3.308,100,0,0,0,66.63,256.2,256.2
"2022-04-11 00:33:00",2888357,0.6706666,52.06667,0.9284423,0.0152607,0.7,0,0.426,44.33305,3.359261,0.02984405,0.46,0,-999,0,1.4,90.6,1.437,1.457,0.692,0.031,0,1.435,13.59,0.763,102.0156,3.312,3.312,3.308,100,0,0,0,66.63,256.2,256.2
"2022-04-11 00:34:00",2888358,0.6026667,54.26655,1.236455,0.03889586,0.69,0,0.386,45.26651,1.610991,0.02274496,0.42,0,-999,0,1.4,90.5,1.418,1.45,0.662,0.038,0,1.431,13.59,0.7,102.0106,3.31,3.312,3.309,100,0,0,0,66.63,256.2,256.2
"2022-04-11 00:35:00",2888359,0.7039999,54.0665,1.569067,0.03720215,0.76,0,0.38,36.40307,4.158965,0.02366431,0.42,0,-999,0,1.4,90.3,1.411,1.458,0.696,0.048,0,1.424,13.59,0.763,102.0126,3.311,3.312,3.31,100,0,0,0,66.63,256.2,256.2
"2022-04-11 00:36:00",2888360,0.7706667,53.33315,1.534818,0.03889589,0.85,0,0.37,35.13487,2.62885,0.01788854,0.4,0,-999,0,1.4,90.3,1.417,1.449,0.725,0.044,0,1.416,13.59,0.763,102.0132,3.31,3.312,3.31,100,0,0,0,66.63,256.2,256.2
"2022-04-11 00:37:00",2888361,0.724,54.13311,2.028489,0.03755884,0.8,0,0.3526667,37.20044,7.336814,0.02235074,0.39,0,-999,0,1.4,90.4,1.4,1.439,0.717,0.042,0,1.416,13.58,0.763,102.0114,3.308,3.311,3.307,100,0,0,0,66.63,256.2,256.2
"2022-04-11 00:38:00",2888362,0.7700001,53.46666,0.8842863,0.04676181,0.85,0,0.3573333,38.73499,5.881068,0.04090096,0.43,0,-999,0,1.4,90.6,1.413,1.453,0.742,0.037,0,1.416,13.59,0.825,102.0118,3.31,3.311,3.306,100,0,0,0,66.63,256.2,256.2
"2022-04-11 00:39:00",2888363,0.7613333,51.66703,2.05463,0.06280836,0.86,0,0.264,30.59652,5.348822,0.05689757,0.36,0,-999,0,1.467,90.8,1.439,1.461,0.658,0.078,0,1.416,13.59,0.763,102.0133,3.308,3.311,3.308,100,0,0,0,66.63,256.2,256.2
"2022-04-11 00:40:00",2888364,0.4746667,51.33544,4.583846,0.1070742,0.67,0,0.1153333,37.46344,7.425975,0.0330387,0.19,0,-999,0,1.4,91.2,1.414,1.462,0.475,0.038,0,1.416,13.59,0.513,102.0074,3.308,3.31,3.308,100,0,0,0,66.63,256.2,256.2
"2022-04-11 00:41:00",2888365,0.3113333,51.13527,4.332864,0.0348074,0.39,0,0.134,359.5519,11.97167,0.04882622,0.22,0,-999,0,1.427,91.6,1.434,1.462,0.317,0.045,0,1.416,13.58,0.388,102.0064,3.31,3.311,3.308,100,0,0,0,66.63,256.2,256.2
"2022-04-11 00:42:00",2888366,0.3126667,46.66685,2.086928,0.02568181,0.37,0,0.2213333,11.46784,4.0633,0.01203698,0.24,0,-999,0,1.4,91.9,1.396,1.435,0.358,0.079,0,1.416,13.59,0.513,102.0088,3.312,3.312,3.31,100,0,0,0,66.63,256.2,256.2
"2022-04-11 00:43:00",2888367,0.2946667,40.7339,3.192525,0.02895207,0.35,0,0.1973334,1.135095,3.611493,0.02885981,0.23,0,-999,0,1.4,91.7,1.404,1.4,0.462,0.034,0,1.416,13.59,0.513,102.0048,3.311,3.312,3.31,100,0,0,0,66.63,256.2,256.2
"2022-04-11 00:44:00",2888368,0.1953333,19.22479,11.62514,0.07135513,0.26,0,0.1433333,318.1358,22.08754,0.01619328,0.18,0,-999,0,1.4,90.9,1.4,1.385,0.321,0.053,0,1.416,13.59,0.388,102.002,3.309,3.312,3.309,100,0,0,0,66.63,256.2,256.2
"2022-04-11 00:45:00",2888369,0.146,327.698,19.22349,0.03808762,0.23,0,0.1326666,294.5884,7.188423,0.01651935,0.16,0,-999,0,1.387,90.4,1.399,1.386,0.296,0.055,0,1.416,13.58,0.388,102.0064,3.31,3.311,3.308,100,0,0,0,66.63,256.2,256.2
"2022-04-11 00:46:00",2888370,0.1746667,11.16611,20.92945,0.04937835,0.28,0,0.1026667,342.9149,17.69724,0.02112397,0.16,0,-999,0,1.387,90.3,1.385,1.382,0.408,0.044,0,1.416,13.59,0.45,101.9973,3.308,3.312,3.308,100,0,0,0,66.63,256.2,256.2
"2022-04-11 00:47:00",2888371,0.244,357.5355,13.24382,0.04239497,0.34,0,0.22,333.4647,11.56557,0.0233809,0.25,0,-999,0,1.387,90.3,1.379,1.382,0.425,0.031,0,1.41,13.59,0.45,101.998,3.311,3.311,3.308,100,0,0,0,66.63,256.2,256.2
"2022-04-11 00:48:00",2888372,0.2913333,319.7534,9.644672,0.0523917,0.4,0,0.246,321.4779,9.5495,0.0575963,0.32,0,-999,0,1.4,90.4,1.416,1.389,0.529,0.042,0,1.394,13.58,0.575,102.0033,3.309,3.312,3.309,100,0,0,0,66.63,256.2,256.2
"2022-04-11 00:49:00",2888373,0.2493334,314.6583,5.205546,0.03641733,0.35,0,0.104,319.1451,9.534733,0.01959592,0.13,0,-999,0,1.4,90.7,1.494,1.423,0.433,0.028,0,1.394,13.59,0.45,101.9979,3.309,3.312,3.309,100,0,0,0,66.63,256.2,256.2
"2022-04-11 00:50:00",2888374,0.3253333,315.6661,2.958457,0.04440221,0.4,0,0.1046667,269.1008,16.75596,0.03630733,0.17,0,-999,0,1.4,90.7,1.525,1.463,0.483,0.031,0,1.394,13.58,0.513,101.9929,3.31,3.312,3.309,100,0,0,0,66.63,256.2,256.2
"2022-04-11 00:51:00",2888375,0.312,310.5988,5.846867,0.03145367,0.37,0,0.1966667,285.7387,7.044394,0.0282056,0.23,0,-999,0,1.44,90.9,1.522,1.482,0.487,0.031,0,1.394,13.58,0.513,101.9996,3.307,3.31,3.307,100,0,0,0,66.63,256.2,256.2
"2022-04-11 00:52:00",2888376,0.2426667,317.5291,4.570812,0.02143725,0.28,0,0.126,242.9612,25.38287,0.03158058,0.2,0,-999,0,1.4,90.8,1.444,1.423,0.479,0.031,0,1.394,13.58,0.513,101.9958,3.308,3.31,3.308,100,0,0,0,66.63,256.2,256.2
"2022-04-11 00:53:00",2888377,0.3173333,319.6692,5.592834,0.04725345,0.39,0,0.33,225.6662,4.299451,0.091942,0.47,0,-999,0,1.4,90.7,1.391,1.382,0.421,0.05,0,1.394,13.58,0.513,101.9923,3.308,3.31,3.308,100,0,0,0,66.63,256.2,256.2
"2022-04-11 00:54:00",2888378,0.3366667,302.373,12.95373,0.04437216,0.39,0,0.3886667,232.4,3.895134,0.01927577,0.43,0,-999,0,1.373,89.9,1.377,1.361,0.383,0.036,0,1.394,13.58,0.45,101.9936,3.308,3.309,3.308,100,0,0,0,66.63,256.2,256.2
"2022-04-11 00:55:00",2888379,0.372,306.269,5.611689,0.03310588,0.44,0,0.2586667,240.6602,11.42353,0.04271873,0.35,0,-999,0,1.4,89.5,1.434,1.38,0.342,0.028,0,1.394,13.58,0.388,101.9916,3.309,3.31,3.308,100,0,0,0,66.63,256.2,256.2
"2022-04-11 00:56:00",2888380,0.3493334,330.7893,7.132423,0.05847697,0.46,0,0.2693333,260.7334,1.80609,0.01481741,0.29,0,-999,0,1.4,90.1,1.446,1.4,0.421,0.05,0,1.394,13.59,0.513,101.9914,3.31,3.31,3.308,100,0,0,0,66.63,256.2,256.2
"2022-04-11 00:57:00",2888381,0.278,346.2048,5.820044,0.03562771,0.37,0,0.288,260.9322,3.956125,0.02039608,0.32,0,-999,0,1.4,90.8,1.468,1.434,0.421,0.039,0,1.394,13.58,0.513,101.9889,3.308,3.311,3.308,100,0,0,0,66.63,256.2,256.2
"2022-04-11 00:58:00",2888382,0.3366666,339.4254,9.166601,0.0646701,0.49,0,0.3773333,249.2732,6.634519,0.03021404,0.43,0,-999,0,1.4,91.1,1.484,1.464,0.471,0.037,0,1.394,13.59,0.513,101.9896,3.309,3.31,3.308,100,0,0,0,66.63,256.2,256.2
"2022-04-11 00:59:00",2888383,0.3613333,333.5529,12.12548,0.03862066,0.46,0,0.3286667,258.4493,7.75376,0.03757066,0.41,0,-999,0,1.4,91.1,1.477,1.463,0.521,0.039,0,1.394,13.59,0.575,101.9872,3.309,3.31,3.309,100,0,0,0,66.63,256.2,256.2
"2022-04-11 01:00:00",2888384,0.3393334,356.9868,7.584987,0.06913433,0.46,0,0.2633334,273.6002,4.527992,0.03753516,0.31,0,-999,0,1.4,91.4,1.499,1.478,0.604,0.075,0,1.394,13.58,0.7,101.9854,3.31,3.31,3.308,100,0,0,0,66.63,256.2,256.2
"2022-04-11 01:01:00",2888385,0.502,16.20458,4.803716,0.06605049,0.61,0,0.192,310.7964,16.01869,0.04102032,0.28,0,-999,0,1.4,91.9,1.486,1.485,0.683,0.066,0,1.41,13.59,0.763,101.9837,3.31,3.311,3.309,100,0,0,0,66.63,256.2,256.2
"2022-04-11 01:02:00",2888386,0.4553334,14.34106,4.997898,0.0588633,0.57,0,0.166,326.3795,9.90397,0.02416609,0.2,0,-999,0,1.413,92.1,1.482,1.476,0.567,0.072,0,1.416,13.59,0.7,101.9824,3.309,3.311,3.308,100,0,0,0,66.63,256.2,256.2
"2022-04-11 01:03:00",2888387,0.53,18.53691,4.785565,0.04131182,0.58,0,0.254,351.4564,9.516823,0.04528428,0.35,0,-999,0,1.5,91.9,1.49,1.464,0.679,0.029,0,1.416,13.59,0.7,101.9802,3.31,3.311,3.309,100,0,0,0,66.63,256.2,256.2
"2022-04-11 01:04:00",2888388,0.6413333,17.39979,2.916446,0.01892676,0.67,0,0.29,4.876107,6.687951,0.0546504,0.4,0,-999,0,1.5,92.1,1.516,1.493,0.612,0.05,0,1.416,13.59,0.7,101.9807,3.308,3.311,3.308,100,0,0,0,66.63,256.2,256.2
"2022-04-11 01:05:00",2888389,0.4833333,12.46582,3.630135,0.0612826,0.6,0,0.3166667,16.34176,5.396513,0.06953815,0.42,0,-999,0,1.5,92.1,1.518,1.536,0.558,0.053,0,1.416,13.59,0.7,101.9809,3.31,3.31,3.308,100,0,0,0,66.63,256.2,256.2
"2022-04-11 01:06:00",2888390,0.5246667,6.599811,2.244736,0.03323987,0.56,0,0.3640001,3.798694,5.796824,0.04772141,0.44,0,-999,0,1.5,92.3,1.573,1.562,0.579,0.042,0,1.416,13.59,0.638,101.9791,3.31,3.31,3.308,100,0,0,0,66.63,256.2,256.2
"2022-04-11 01:07:00",2888391,0.5026667,350.876,9.190172,0.02143724,0.54,0,0.2946667,325.9921,11.97,0.09972406,0.51,0,-999,0,1.587,92.2,1.623,1.613,0.533,0.029,0,1.416,13.59,0.575,101.9786,3.31,3.311,3.31,100,0,0,0,66.63,256.2,256.2
"2022-04-11 01:08:00",2888392,0.4573333,323.6854,7.431538,0.05039401,0.54,0,0.4566667,297.5291,6.117054,0.05723247,0.55,0,-999,0,1.6,91.6,1.706,1.643,0.575,0.04,0,1.431,13.59,0.638,101.9763,3.31,3.31,3.308,100,0,0,0,66.63,256.2,256.2
"2022-04-11 01:09:00",2888393,0.4913333,327.6083,5.917126,0.04333846,0.55,0,0.5573333,301.7331,4.876682,0.05078932,0.62,0,-999,0,1.647,91.3,1.786,1.738,0.608,0.05,0,1.434,13.59,0.7,101.978,3.308,3.311,3.308,100,0,0,0,66.63,256.2,256.2
"2022-04-11 01:10:00",2888394,0.5753334,329.2656,2.515222,0.01746107,0.6,0,0.65,306.1346,2.847615,0.04885352,0.76,0,-999,0,1.7,91.5,1.837,1.815,0.717,0.028,0,1.437,13.59,0.763,101.9758,3.309,3.31,3.308,100,0,0,0,66.63,256.2,256.2
"2022-04-11 01:11:00",2888395,0.5273334,330.2675,2.644346,0.01289273,0.55,0,0.5386667,298.9353,3.989904,0.04096612,0.65,0,-999,0,1.7,92.1,1.902,1.853,0.658,0.044,0,1.437,13.59,0.7,101.9712,3.308,3.31,3.308,100,0,0,0,66.63,256.2,256.2
"2022-04-11 01:12:00",2888396,0.5273334,322.3333,0.8693321,0.02644911,0.57,0,0.5313333,301.3336,2.890385,0.02895207,0.59,0,-999,0,1.793,93,1.956,1.902,0.55,0.031,0,1.437,13.59,0.575,101.9733,3.31,3.311,3.308,100,0,0,0,66.63,256.2,256.2
"2022-04-11 01:13:00",2888397,0.566,334.9363,4.780404,0.05930711,0.63,0,0.6106667,291.7982,4.459939,0.03678165,0.67,0,-999,0,1.8,93,1.955,1.921,0.646,0.064,0,1.438,13.59,0.763,101.9739,3.311,3.311,3.308,100,0,0,0,66.63,256.2,256.2
"2022-04-11 01:14:00",2888398,0.4826666,327.3986,2.961371,0.008537503,0.5,0,0.4626667,286.3885,7.975359,0.04057366,0.54,0,-999,0,1.8,93,1.961,1.926,0.683,0.028,0,1.456,13.59,0.7,101.9766,3.31,3.312,3.31,100,0,0,0,66.63,256.2,256.2
"2022-04-11 01:15:00",2888399,0.466,323.1333,1.499854,0.02154066,0.52,0,0.4266667,292.2046,4.396342,0.1004435,0.56,0,-999,0,1.8,93.3,1.956,1.934,0.662,0.05,0,1.457,13.59,0.7,101.976,3.308,3.311,3.308,100,0,0,0,66.63,256.2,256.2
"2022-04-11 01:16:00",2888400,0.5906667,318.2,2.315103,0.02264705,0.62,0,0.4553334,289.996,4.688276,0.07446399,0.59,0,-999,0,1.8,93.4,1.914,1.921,0.554,0.029,0,1.477,13.59,0.575,101.9698,3.312,3.312,3.308,100,0,0,0,66.63,256.2,256.2
"2022-04-11 01:17:00",2888401,0.568,317.4667,1.408031,0.007483307,0.58,0,0.542,288.1988,4.018909,0.0413441,0.62,0,-999,0,1.8,93,1.897,1.91,0.671,0.082,0,1.48,13.59,0.825,101.9727,3.31,3.312,3.309,100,0,0,0,66.63,256.2,256.2
"2022-04-11 01:18:00",2888402,0.5726666,306.1317,2.985206,0.021746,0.61,0,0.5633333,280.7329,3.234147,0.08459051,0.66,0,-999,0,1.8,92.8,1.896,1.91,0.612,0.075,0,1.481,13.58,0.763,101.9715,3.31,3.311,3.308,100,0,0,0,66.63,256.2,256.2
"2022-04-11 01:19:00",2888403,0.5933333,311.134,3.480522,0.01192571,0.62,0,0.6940001,284.9333,4.088138,0.03241398,0.77,0,-999,0,1.8,92.6,1.882,1.91,0.617,0.054,0,1.5,13.59,0.7,101.9714,3.31,3.31,3.308,100,0,0,0,66.63,256.2,256.2
"2022-04-11 01:20:00",2888404,0.636,315.0667,0.9287584,0.01583245,0.66,0,0.702,291.3976,4.269369,0.05101633,0.78,0,-999,0,1.8,92.6,1.839,1.893,0.779,0.048,0,1.503,13.59,0.825,101.9723,3.31,3.311,3.309,100,0,0,0,66.63,256.2,256.2
"2022-04-11 01:21:00",2888405,0.6006667,308.2653,2.791516,0.01062493,0.62,0,0.6566666,289.9341,2.885566,0.06934615,0.76,0,-999,0,1.8,92.7,1.83,1.88,0.742,0.029,0,1.521,13.59,0.763,101.9725,3.311,3.311,3.308,100,0,0,0,66.63,256.2,256.2
"2022-04-11 01:22:00",2888406,0.5506667,304.1332,1.961543,0.03586395,0.6,0,0.6506667,287.4663,3.051846,0.09398344,0.84,0,-999,0,1.8,92.7,1.841,1.884,0.742,0.037,0,1.523,13.58,0.825,101.9667,3.31,3.311,3.308,100,0,0,0,66.63,256.2,256.2
"2022-04-11 01:23:00",2888407,0.5019999,304.7335,1.982002,0.02561249,0.54,0,0.5453333,289.4651,3.791862,0.06671998,0.64,0,-999,0,1.8,92.7,1.827,1.88,0.65,0.047,0,1.532,13.59,0.763,101.9695,3.311,3.311,3.308,100,0,0,0,66.63,256.2,256.2
"2022-04-11 01:24:00",2888408,0.5053334,305.3939,5.39841,0.05149325,0.59,0,0.568,293.1381,5.287113,0.0871168,0.76,0,-999,0,1.8,92.8,1.823,1.873,0.579,0.028,0,1.543,13.58,0.638,101.969,3.311,3.312,3.31,100,0,0,0,66.63,256.2,256.2
"2022-04-11 01:25:00",2888409,0.5746667,316.0082,6.086799,0.02499778,0.61,0,0.6966667,296.4673,3.611655,0.04825856,0.81,0,-999,0,1.8,92.5,1.821,1.869,0.679,0.059,0,1.555,13.59,0.763,101.9723,3.31,3.311,3.309,100,0,0,0,66.63,256.2,256.2
"2022-04-11 01:26:00",2888410,0.5546667,311.3342,3.735198,0.01857118,0.58,0,0.6866666,296.9966,4.41089,0.03238656,0.74,0,-999,0,1.787,92.3,1.819,1.858,0.729,0.031,0,1.565,13.59,0.763,101.9694,3.31,3.312,3.31,100,0,0,0,66.63,256.2,256.2
"2022-04-11 01:27:00",2888411,0.5586666,309.8,1.93895,0.02093375,0.59,0,0.7086666,302.8666,2.729176,0.0444022,0.81,0,-999,0,1.8,92.2,1.814,1.844,0.687,0.034,0,1.574,13.59,0.763,101.9654,3.31,3.311,3.309,100,0,0,0,66.63,256.2,256.2
"2022-04-11 01:28:00",2888412,0.4413333,314.5334,2.334232,0.04240545,0.53,0,0.7033333,309.0676,3.973038,0.06508115,0.84,0,-999,0,1.8,92.2,1.811,1.843,0.687,0.034,0,1.586,13.59,0.763,101.9639,3.31,3.31,3.307,100,0,0,0,66.63,256.2,256.2
"2022-04-11 01:29:00",2888413,0.4373333,312.0682,5.482878,0.03567757,0.5,0,0.6066667,302.2674,3.585373,0.04284339,0.68,0,-999,0,1.8,92.2,1.819,1.856,0.754,0.031,0,1.597,13.58,0.825,101.9641,3.308,3.311,3.308,100,0,0,0,66.63,256.2,256.2
"2022-04-11 01:30:00",2888414,0.4353333,303.8002,1.972891,0.01892676,0.46,0,0.572,298.0029,5.252159,0.036,0.61,0,-999,0,1.8,92.9,1.875,1.901,0.75,0.025,0,1.606,13.58,0.763,101.9643,3.312,3.312,3.308,100,0,0,0,66.63,256.2,256.2
"2022-04-11 01:31:00",2888415,0.4759999,304.1333,0.9568848,0.01019804,0.5,0,0.604,304.6008,2.443469,0.02303621,0.65,0,-999,0,1.8,93.6,1.88,1.911,0.8,0.044,0,1.608,13.58,0.888,101.9666,3.312,3.312,3.309,100,0,0,0,66.63,256.2,256.2
"2022-04-11 01:32:00",2888416,0.4793333,308.6658,3.645241,0.01768866,0.51,0,0.62,306.7997,2.006356,0.0350238,0.69,0,-999,0,1.8,93.3,1.841,1.905,0.85,0.031,0,1.629,13.58,0.888,101.9667,3.311,3.312,3.31,100,0,0,0,66.63,256.2,256.2
"2022-04-11 01:33:00",2888417,0.5546667,309.0667,0.8536577,0.03159465,0.59,0,0.6606666,309.4647,4.332409,0.070092,0.86,0,-999,0,1.8,92.8,1.869,1.92,0.829,0.028,0,1.637,13.58,0.888,101.9649,3.309,3.311,3.308,100,0,0,0,66.63,256.2,256.2
"2022-04-11 01:34:00",2888418,0.5906667,303.7371,5.232498,0.01236483,0.62,0,0.7486666,305.2672,2.95418,0.04883531,0.81,0,-999,0,1.8,92.7,1.875,1.931,0.9,0.057,0,1.649,13.58,1.013,101.9653,3.308,3.31,3.308,100,0,0,0,66.63,256.2,256.2
"2022-04-11 01:35:00",2888419,0.6246666,289.6,1.083228,0.01257863,0.65,0,0.7273334,297.0695,4.371914,0.05065789,0.86,0,-999,0,1.8,92.8,1.903,1.951,0.958,0.039,0,1.651,13.58,1.013,101.9696,3.311,3.311,3.308,100,0,0,0,66.63,256.2,256.2
"2022-04-11 01:36:00",2888420,0.688,299.0691,4.537748,0.02454927,0.72,0,0.7373332,295.0678,3.08647,0.05182876,0.82,0,-999,0,1.8,93.6,1.916,1.96,0.963,0.025,0,1.672,13.59,1.013,101.9717,3.312,3.312,3.31,100,0,0,0,66.63,256.2,256.2
"2022-04-11 01:37:00",2888421,0.7546666,301.5333,0.9567826,0.03073904,0.79,0,0.7653332,298.0001,4.485469,0.06984427,0.89,0,-999,0,1.8,93.8,1.842,1.924,0.967,0.028,0,1.677,13.59,1.013,101.9757,3.312,3.314,3.311,100,0,0,0,66.63,256.2,256.2
"2022-04-11 01:38:00",2888422,0.752,300.8667,1.257722,0.006531965,0.77,0,0.8086666,296.9999,3.224795,0.07464284,0.93,0,-999,0,1.787,93.5,1.814,1.876,0.975,0.031,0,1.692,13.59,1.013,101.9739,3.309,3.312,3.309,100,0,0,0,66.63,256.2,256.2
"2022-04-11 01:39:00",2888423,0.7853333,294.8648,5.80668,0.02445858,0.84,0,0.742,286.4633,5.557277,0.06046487,0.85,0,-999,0,1.727,93,1.793,1.843,1.067,0.06,0,1.692,13.59,1.138,101.9746,3.311,3.312,3.308,100,0,0,0,66.63,256.2,256.2
"2022-04-11 01:40:00",2888424,0.8706666,287.5333,0.4985056,0.007717215,0.88,0,0.8013333,285.7324,2.669204,0.05572153,0.9,0,-999,0,1.7,93,1.772,1.843,1.104,0.05,0,1.697,13.58,1.2,101.9722,3.312,3.312,3.31,100,0,0,0,66.63,256.2,256.2
"2022-04-11 01:41:00",2888425,0.858,291.1333,1.35951,0.01166191,0.87,0,0.7780001,286.7343,3.713592,0.05114684,0.89,0,-999,0,1.7,92.7,1.801,1.843,1.058,0.042,0,1.712,13.59,1.138,101.9741,3.311,3.312,3.31,100,0,0,0,66.63,256.2,256.2
"2022-04-11 01:42:00",2888426,0.8933333,292.4671,2.629483,0.03571491,0.96,0,0.8826666,283.7342,3.731465,0.08805048,1.03,0,-999,0,1.713,92.6,1.824,1.855,1.117,0.049,0,1.714,13.59,1.2,101.9749,3.311,3.311,3.31,100,0,0,0,66.63,256.2,256.2